Location: Poughquag
(41.6090°N, 73.6820°W)
Time: 05:12:41
(UTC-04:00)

BlueWalker 3 - Visible Passes

Search period start: 08 May 2026 00:00
Search period end: 18 May 2026 00:00
Orbit: 448 x 458 km, 53.2° (Epoch: 7 May)

Date Brightness Start Highest point End Pass type
(mag) Time Alt. Az. Time Alt. Az. Time Alt. Az.
8 May 3.1 02:58:32 34° ENE 02:58:32 34° ENE 03:00:49 10° ENE visible
8 May 3.4 04:32:10 11° W 04:34:56 25° NNW 04:37:56 10° NNE visible
9 May 4.3 02:22:58 17° ENE 02:22:58 17° ENE 02:23:58 10° ENE visible
9 May 3.2 03:56:36 21° WNW 03:58:06 30° NNW 04:01:17 10° NE visible
10 May 2.7 03:20:58 36° NW 03:21:16 37° NNW 03:24:37 10° NE visible
10 May 4.3 04:57:28 10° NW 04:59:28 14° N 05:01:27 10° NNE visible
11 May 3.0 02:45:18 38° N 02:45:18 38° N 02:47:54 10° NE visible
11 May 4.3 04:20:21 10° NW 04:22:33 15° NNW 04:24:44 10° NNE visible
12 May 3.9 02:09:34 25° NE 02:09:34 25° NE 02:11:11 10° NE visible
12 May 4.2 03:43:12 10° WNW 03:45:37 17° NNW 03:48:02 10° NNE visible
13 May 4.6 01:33:48 15° NE 01:33:48 15° NE 01:34:25 10° NE visible
13 May 4.0 03:07:24 16° NW 03:08:42 19° NNW 03:11:20 10° NNE visible
13 May 4.6 04:45:33 10° NNW 04:47:12 13° N 04:48:50 10° NNE visible
14 May 3.8 02:31:35 22° NNW 02:31:47 22° NNW 02:34:39 10° NNE visible
14 May 4.6 04:08:35 10° NNW 04:10:13 13° N 04:11:52 10° NNE visible
15 May 4.0 01:55:41 24° N 01:55:41 24° N 01:57:56 10° NE visible
15 May 4.6 03:31:32 10° NW 03:33:15 13° N 03:34:57 10° NNE visible
16 May 4.3 01:19:43 20° NNE 01:19:43 20° NNE 01:21:13 10° NE visible
16 May 4.7 02:54:24 10° NW 02:56:15 13° N 02:58:07 10° NNE visible
16 May 4.6 04:32:37 10° NNW 04:34:49 15° NNE 04:37:01 10° NE visible
17 May 4.5 00:43:38 16° NE 00:43:38 16° NE 00:44:29 10° NE visible
17 May 4.7 02:17:14 10° NW 02:19:16 14° N 02:21:19 10° NNE visible
17 May 4.7 03:55:51 10° NNW 03:57:50 14° N 03:59:50 10° NE visible
